Desroches Airport

Jump to: basic info | weather | runways | comments

Related pages: nearby airports | nearby navaids | notams | map

Basic information (top)

Codes: DES FSDR
Location: lon -5.696700, lat 53.655800, elev 10 ft / 3 m msl
Status: small_airport
Scheduled airline service: no
Links: Wikipedia Mobile

Weather (top)

Current conditions for Seychelles International Airport 127nm (236km) ENE (rec'd 2014/09/18 21:00Z):

FSIA 182100Z 14015KT 9999 SCT020 27/21 Q1013 NOSIG

Airport forecast for Seychelles International Airport 127nm (236km) ENE (rec'd 2014/09/18 18:31Z):

TAF FSIA 181541Z 1818/1918 16017KT 9999 SCT018 
      TEMPO 1900/1906 -SHRA BKN016

Runways (top)

12/30: 4,531 x 33 ft (1,381 x 10 m) — paved — not lighted

Latest comments (top)

No comments yet for Desroches Airport

More... (top)

See also NOTAMs and nearby airports and navaids, or visit the Desroches Airport page at the main OurAirports website..